| time (UTC) | temp C | wind direction | speed KPH | gust KPH | rain 1hr cm | rain 24hr cm | rain mn cm | humidity % | barometer mb |
| 20260507033021 | 9 | 243 | 9.7 | 24.1 | 0.00 | 0.00 | 0.00 | 52 | 1017.3 |
| 20260507031515 | 9 | 220 | 8.0 | 20.9 | 0.00 | 0.00 | 0.00 | 53 | 1017.2 |
| 20260507030011 | 8 | 230 | 6.4 | 20.9 | 0.00 | 0.00 | 0.00 | 55 | 1017.1 |
| 20260507024515 | 8 | 211 | 4.8 | 19.3 | 0.00 | 0.00 | 0.00 | 55 | 1017.2 |
| 20260507023010 | 8 | 216 | 3.2 | 16.1 | 0.00 | 0.00 | 0.00 | 56 | 1017.3 |
| 20260507021518 | 8 | 294 | 4.8 | 16.1 | 0.00 | 0.00 | 0.00 | 57 | 1017.3 |
| 20260507020010 | 8 | 284 | 4.8 | 19.3 | 0.00 | 0.00 | 0.00 | 57 | 1017.3 |
| 20260507014507 | 8 | 228 | 9.7 | 20.9 | 0.00 | 0.00 | 0.00 | 57 | 1017.3 |
| 20260507013008 | 8 | 220 | 9.7 | 20.9 | 0.00 | 0.00 | 0.00 | 57 | 1017.3 |
| 20260507011513 | 8 | 251 | 3.2 | 20.9 | 0.00 | 0.00 | 0.00 | 56 | 1017.6 |
| 20260507010007 | 7 | 240 | 8.0 | 22.5 | 0.00 | 0.00 | 0.00 | 55 | 1017.5 |
| 20260507004501 | 7 | 251 | 6.4 | 16.1 | 0.00 | 0.00 | 0.00 | 55 | 1017.5 |
| 20260507003058 | 7 | 231 | 3.2 | 19.3 | 0.00 | 0.00 | 0.00 | 56 | 1017.4 |
| 20260507001604 | 7 | 250 | 8.0 | 20.9 | 0.00 | 0.00 | 0.00 | 58 | 1017.1 |
| 20260507000057 | 6 | 239 | 1.6 | 20.9 | 0.00 | 0.00 | 0.00 | 63 | 1017.3 |
| 20260506234619 | 6 | 228 | 8.0 | 22.5 | 0.00 | 0.00 | 0.00 | 62 | 1016.8 |
| 20260506233053 | 6 | 249 | 6.4 | 25.7 | 0.00 | 0.00 | 0.00 | 63 | 1016.7 |
| 20260506231554 | 6 | 235 | 6.4 | 19.3 | 0.00 | 0.00 | 0.00 | 64 | 1017.1 |
| 20260506224551 | 6 | 232 | 6.4 | 20.9 | 0.00 | 0.00 | 0.00 | 66 | 1017.1 |
| 20260506223056 | 6 | 216 | 6.4 | 24.1 | 0.00 | 0.00 | 0.00 | 68 | 1016.9 |
| 20260506221548 | 5 | 287 | 6.4 | 27.4 | 0.00 | 0.00 | 0.00 | 69 | 1016.6 |
| 20260506220047 | 5 | 305 | 4.8 | 24.1 | 0.00 | 0.00 | 0.00 | 70 | 1016.1 |
| 20260506061523 | 14 | 251 | 4.8 | 16.1 | 0.00 | 0.03 | 0.03 | 63 | 1018.8 |
| 20260506044515 | 14 | 256 | 8.0 | 20.9 | 0.00 | 0.03 | 0.03 | 62 | 1019.3 |
| 20260506043012 | 14 | 326 | 6.4 | 19.3 | 0.00 | 0.03 | 0.03 | 62 | 1019.4 |
| 20260506041522 | 15 | 256 | 6.4 | 20.9 | 0.00 | 0.03 | 0.03 | 59 | 1019.5 |
| 20260506040008 | 14 | 292 | 4.8 | 17.7 | 0.00 | 0.03 | 0.03 | 60 | 1019.7 |
| 20260506034508 | 14 | 266 | 6.4 | 17.7 | 0.00 | 0.03 | 0.03 | 63 | 1020.0 |